• In Germany
  • List of Countries
  • For 7 days
  • Water Temperature
  • Satellite Maps
  • Weather Map
  • Weather Widgets
  • user-avatar
    Login

    Hourly Weather Bad Holzhausen

    Today, 24 April, Tuesday

    Time Temperature Precipitation Wind Pressure Humidity
    00:00 +8°C° 0 mm 2 mps 742 mmHg 85%
    01:00 +8°C° 0 mm 2 mps 742 mmHg 87%
    02:00 +8°C° 0 mm 2 mps 742 mmHg 86%
    03:00 +8°C° 0 mm 3 mps 742 mmHg 86%
    04:00 +8°C° 0 mm 3 mps 742 mmHg 85%
    05:00 +7°C° 0 mm 4 mps 742 mmHg 82%
    06:00 +8°C° 0 mm 5 mps 742 mmHg 79%
    07:00 +8°C° 0 mm 5 mps 742 mmHg 75%
    08:00 +9°C° 0.1 mm 5 mps 742 mmHg 75%
    09:00 +9°C° 0.1 mm 6 mps 742 mmHg 75%
    10:00 +10°C° 0.1 mm 6 mps 742 mmHg 75%
    11:00 +10°C° 0.3 mm 6 mps 742 mmHg 78%
    12:00 +10°C° 0.3 mm 6 mps 742 mmHg 81%
    13:00 +10°C° 0.3 mm 6 mps 742 mmHg 84%
    14:00 +10°C° 0.1 mm 5 mps 742 mmHg 83%
    15:00 +12°C° 0.1 mm 5 mps 741 mmHg 82%
    16:00 +12°C° 0.1 mm 5 mps 741 mmHg 81%
    17:00 +12°C° 0 mm 4 mps 741 mmHg 83%
    18:00 +11°C° 0 mm 4 mps 741 mmHg 84%
    19:00 +11°C° 0 mm 3 mps 741 mmHg 85%
    20:00 +11°C° 0 mm 3 mps 740 mmHg 87%
    21:00 +10°C° 0 mm 3 mps 740 mmHg 88%
    22:00 +10°C° 0 mm 3 mps 740 mmHg 90%
    23:00 +10°C° 0.3 mm 3 mps 739 mmHg 90%

    Tomorrow, 25 April, Wednesday

    Time Temperature Precipitation Wind Pressure Humidity
    00:00 +10°C° 0.3 mm 4 mps 739 mmHg 91%
    01:00 +11°C° 0.3 mm 4 mps 738 mmHg 91%
    02:00 +10°C° 0.1 mm 5 mps 737 mmHg 91%
    03:00 +10°C° 0.1 mm 5 mps 737 mmHg 90%
    04:00 +10°C° 0.1 mm 6 mps 736 mmHg 89%
    05:00 +10°C° 0.3 mm 6 mps 736 mmHg 89%
    06:00 +11°C° 0.3 mm 6 mps 736 mmHg 90%
    07:00 +11°C° 0.3 mm 6 mps 736 mmHg 90%
    08:00 +11°C° 0.5 mm 7 mps 736 mmHg 89%
    09:00 +11°C° 0.5 mm 7 mps 736 mmHg 88%
    10:00 +11°C° 0.5 mm 7 mps 737 mmHg 86%
    11:00 +12°C° 0.3 mm 7 mps 737 mmHg 82%
    12:00 +12°C° 0.3 mm 7 mps 737 mmHg 78%
    13:00 +14°C° 0.3 mm 7 mps 738 mmHg 73%
    14:00 +12°C° 0.2 mm 7 mps 738 mmHg 73%
    15:00 +13°C° 0.2 mm 6 mps 738 mmHg 72%
    16:00 +13°C° 0.2 mm 5 mps 738 mmHg 71%
    17:00 +12°C° 0.3 mm 5 mps 738 mmHg 75%
    18:00 +11°C° 0.3 mm 4 mps 738 mmHg 79%
    19:00 +10°C° 0.3 mm 3 mps 739 mmHg 83%
    20:00 +9°C° 0 mm 3 mps 739 mmHg 85%
    21:00 +8°C° 0 mm 3 mps 739 mmHg 86%
    22:00 +7°C° 0 mm 3 mps 740 mmHg 87%
    23:00 +7°C° 0 mm 3 mps 740 mmHg 88%

    Day after tomorrow, 26 April, Thursday

    Time Temperature Precipitation Wind Pressure Humidity
    00:00 +5°C° 0 mm 4 mps 740 mmHg 88%
    01:00 +5°C° 0 mm 4 mps 740 mmHg 88%
    02:00 +5°C° 0.1 mm 4 mps 740 mmHg 89%
    03:00 +5°C° 0.1 mm 5 mps 740 mmHg 89%
    04:00 +5°C° 0.1 mm 5 mps 740 mmHg 90%
    05:00 +4°C° 0.1 mm 6 mps 740 mmHg 88%
    06:00 +5°C° 0.1 mm 6 mps 741 mmHg 87%
    07:00 +5°C° 0.1 mm 7 mps 741 mmHg 85%
    08:00 +5°C° 0.2 mm 7 mps 741 mmHg 82%
    09:00 +6°C° 0.2 mm 7 mps 742 mmHg 80%
    10:00 +8°C° 0.2 mm 7 mps 742 mmHg 77%
    11:00 +8°C° 0.3 mm 7 mps 742 mmHg 73%
    12:00 +9°C° 0.3 mm 7 mps 742 mmHg 69%
    13:00 +10°C° 0.3 mm 7 mps 742 mmHg 65%
    14:00 +10°C° 0.3 mm 7 mps 742 mmHg 64%
    15:00 +10°C° 0.3 mm 7 mps 742 mmHg 63%
    16:00 +10°C° 0.3 mm 7 mps 742 mmHg 62%
    17:00 +9°C° 0.1 mm 5 mps 743 mmHg 66%
    18:00 +8°C° 0.1 mm 4 mps 743 mmHg 70%
    19:00 +8°C° 0.1 mm 3 mps 743 mmHg 74%
    20:00 +7°C° 0 mm 3 mps 743 mmHg 77%
    21:00 +6°C° 0 mm 2 mps 743 mmHg 80%
    22:00 +5°C° 0 mm 2 mps 744 mmHg 83%
    23:00 +4°C° 0 mm 2 mps 743 mmHg 83%

    27 April, Friday

    Time Temperature Precipitation Wind Pressure Humidity
    00:00 +4°C° 0 mm 2 mps 743 mmHg 84%
    01:00 +4°C° 0 mm 2 mps 743 mmHg 84%
    02:00 +4°C° 0 mm 2 mps 743 mmHg 84%
    03:00 +4°C° 0 mm 2 mps 742 mmHg 84%
    04:00 +4°C° 0 mm 2 mps 742 mmHg 84%
    05:00 +5°C° 0 mm 2 mps 742 mmHg 82%
    06:00 +6°C° 0 mm 2 mps 742 mmHg 80%
    07:00 +7°C° 0 mm 2 mps 742 mmHg 78%
    08:00 +8°C° 0 mm 3 mps 741 mmHg 72%
    09:00 +10°C° 0 mm 3 mps 741 mmHg 66%
    10:00 +12°C° 0 mm 3 mps 741 mmHg 59%
    11:00 +13°C° 0 mm 3 mps 741 mmHg 57%
    12:00 +13°C° 0 mm 3 mps 740 mmHg 54%
    13:00 +14°C° 0 mm 4 mps 740 mmHg 52%
    14:00 +16°C° 0 mm 3 mps 739 mmHg 52%
    15:00 +16°C° 0 mm 3 mps 739 mmHg 52%
    16:00 +17°C° 0 mm 3 mps 738 mmHg 52%
    17:00 +16°C° 0 mm 2 mps 738 mmHg 58%
    18:00 +15°C° 0 mm 2 mps 738 mmHg 63%
    19:00 +14°C° 0 mm 1 mps 738 mmHg 68%
    20:00 +13°C° 0 mm 1 mps 738 mmHg 70%
    21:00 +12°C° 0 mm 1 mps 739 mmHg 73%
    22:00 +11°C° 0 mm 1 mps 739 mmHg 75%
    23:00 +10°C° 0 mm 1 mps 739 mmHg 76%

    28 April, Saturday

    Time Temperature Precipitation Wind Pressure Humidity
    00:00 +10°C° 0 mm 1 mps 739 mmHg 76%
    01:00 +9°C° 0 mm 1 mps 739 mmHg 77%
    02:00 +9°C° 0 mm 1 mps 739 mmHg 79%
    03:00 +9°C° 0 mm 1 mps 739 mmHg 80%
    04:00 +9°C° 0 mm 1 mps 739 mmHg 81%
    05:00 +8°C° 0 mm 2 mps 739 mmHg 81%
    06:00 +9°C° 0 mm 2 mps 740 mmHg 81%
    07:00 +10°C° 0 mm 2 mps 740 mmHg 81%
    08:00 +12°C° 0 mm 2 mps 740 mmHg 76%
    09:00 +14°C° 0 mm 2 mps 741 mmHg 70%
    10:00 +14°C° 0 mm 3 mps 741 mmHg 65%
    11:00 +16°C° 0.1 mm 3 mps 741 mmHg 63%
    12:00 +16°C° 0.1 mm 2 mps 741 mmHg 61%
    13:00 +17°C° 0.1 mm 2 mps 741 mmHg 58%
    14:00 +17°C° 0.1 mm 2 mps 741 mmHg 59%
    15:00 +17°C° 0.1 mm 2 mps 741 mmHg 60%
    16:00 +17°C° 0.1 mm 2 mps 740 mmHg 61%
    17:00 +16°C° 0 mm 2 mps 740 mmHg 67%
    18:00 +15°C° 0 mm 2 mps 740 mmHg 73%
    19:00 +13°C° 0 mm 3 mps 740 mmHg 79%
    20:00 +11°C° 0 mm 3 mps 741 mmHg 83%
    21:00 +10°C° 0 mm 3 mps 741 mmHg 87%
    22:00 +9°C° 0 mm 3 mps 741 mmHg 90%
    23:00 +9°C° 0 mm 3 mps 741 mmHg 91%

    29 April, Sunday

    Time Temperature Precipitation Wind Pressure Humidity
    00:00 +8°C° 0 mm 3 mps 741 mmHg 92%
    01:00 +8°C° 0 mm 3 mps 741 mmHg 93%
    02:00 +8°C° 0 mm 3 mps 740 mmHg 93%
    03:00 +8°C° 0 mm 3 mps 740 mmHg 94%
    04:00 +8°C° 0 mm 3 mps 740 mmHg 94%
    05:00 +9°C° 0 mm 3 mps 740 mmHg 91%
    06:00 +8°C° 0 mm 4 mps 739 mmHg 89%
    07:00 +10°C° 0 mm 4 mps 739 mmHg 86%
    08:00 +12°C° 0 mm 5 mps 739 mmHg 81%
    09:00 +14°C° 0 mm 6 mps 739 mmHg 75%
    10:00 +16°C° 0 mm 6 mps 738 mmHg 70%
    11:00 +17°C° 0 mm 6 mps 738 mmHg 67%
    12:00 +20°C° 0 mm 6 mps 737 mmHg 64%
    13:00 +21°C° 0 mm 6 mps 737 mmHg 62%
    14:00 +21°C° 0.9 mm 5 mps 736 mmHg 65%
    15:00 +21°C° 0.9 mm 5 mps 736 mmHg 69%
    16:00 +20°C° 0.9 mm 4 mps 735 mmHg 73%
    17:00 +20°C° 0.4 mm 4 mps 735 mmHg 77%
    18:00 +19°C° 0.4 mm 3 mps 735 mmHg 82%
    19:00 +18°C° 0.4 mm 3 mps 735 mmHg 87%
    20:00 +17°C° 0 mm 3 mps 735 mmHg 89%
    21:00 +16°C° 0 mm 2 mps 734 mmHg 91%
    22:00 +15°C° 0 mm 2 mps 734 mmHg 93%
    23:00 +15°C° 0 mm 2 mps 734 mmHg 93%
    Show more